Time,TemperatureF,DewpointF,PressureIn,WindDirection,WindDirectionDegrees,WindSpeedMPH,WindSpeedGustMPH,Humidity,HourlyPrecipIn,Conditions,Clouds,dailyrainin,SoftwareType,DateUTC
2014-03-14 00:14:00,18.7,9.0,30.21,SW,235,4.0,7.0,64,0.00,,,0.00,weatherlink.com 1.10,2014-03-14 04:14:00,
2014-03-14 00:32:00,19.2,9.0,30.21,SW,235,4.0,7.0,64,0.00,,,0.00,weatherlink.com 1.10,2014-03-14 04:32:00,
2014-03-14 00:51:00,19.6,9.0,30.21,SW,225,3.0,6.0,63,0.00,,,0.00,weatherlink.com 1.10,2014-03-14 04:51:00,
2014-03-14 01:10:00,19.8,9.0,30.21,West,280,2.0,8.0,63,0.00,,,0.00,weatherlink.com 1.10,2014-03-14 05:10:00,
2014-03-14 01:30:00,20.1,10.0,30.21,WSW,237,1.0,7.0,63,0.00,,,0.00,weatherlink.com 1.10,2014-03-14 05:30:00,
2014-03-14 01:48:00,20.6,10.0,30.21,WSW,244,5.0,7.0,63,0.00,,,0.00,weatherlink.com 1.10,2014-03-14 05:48:00,
2014-03-14 02:07:00,21.0,10.0,30.21,West,260,1.0,8.0,63,0.00,,,0.00,weatherlink.com 1.10,2014-03-14 06:07:00,
2014-03-14 02:26:00,21.4,10.0,30.21,WSW,252,3.0,9.0,61,0.00,,,0.00,weatherlink.com 1.10,2014-03-14 06:26:00,
2014-03-14 02:45:00,21.9,11.0,30.21,West,281,4.0,8.0,62,0.00,,,0.00,weatherlink.com 1.10,2014-03-14 06:45:00,
2014-03-14 03:04:00,22.4,11.0,30.20,SW,235,4.0,6.0,62,0.00,,,0.00,weatherlink.com 1.10,2014-03-14 07:04:00,
2014-03-14 03:22:00,22.9,12.0,30.20,SW,233,2.0,7.0,62,0.00,,,0.00,weatherlink.com 1.10,2014-03-14 07:22:00,
2014-03-14 03:41:00,23.6,12.0,30.19,SW,229,2.0,7.0,61,0.00,,,0.00,weatherlink.com 1.10,2014-03-14 07:41:00,
2014-03-14 04:00:00,24.1,12.0,30.19,SW,229,1.0,7.0,60,0.00,,,0.00,weatherlink.com 1.10,2014-03-14 08:00:00,
2014-03-14 04:18:00,24.4,12.0,30.18,SSW,205,2.0,8.0,60,0.00,,,0.00,weatherlink.com 1.10,2014-03-14 08:18:00,
2014-03-14 04:37:00,24.8,13.0,30.18,WSW,240,2.0,7.0,60,0.00,,,0.00,weatherlink.com 1.10,2014-03-14 08:37:00,
2014-03-14 04:56:00,25.3,14.0,30.18,SW,224,3.0,8.0,61,0.00,,,0.00,weatherlink.com 1.10,2014-03-14 08:56:00,
2014-03-14 05:15:00,25.8,13.0,30.18,SW,231,4.0,7.0,59,0.00,,,0.00,weatherlink.com 1.10,2014-03-14 09:15:00,
2014-03-14 05:34:00,26.2,13.0,30.18,WSW,241,2.0,6.0,58,0.00,,,0.00,weatherlink.com 1.10,2014-03-14 09:34:00,
2014-03-14 05:52:00,26.9,14.0,30.18,WSW,247,4.0,8.0,57,0.00,,,0.00,weatherlink.com 1.10,2014-03-14 09:52:00,
2014-03-14 06:11:00,27.2,14.0,30.18,WSW,240,4.0,7.0,57,0.00,,,0.00,weatherlink.com 1.10,2014-03-14 10:11:00,
2014-03-14 06:30:00,27.5,14.0,30.18,SSW,209,3.0,8.0,57,0.00,,,0.00,weatherlink.com 1.10,2014-03-14 10:30:00,
2014-03-14 06:49:00,27.8,14.0,30.18,SW,217,1.0,7.0,56,0.00,,,0.00,weatherlink.com 1.10,2014-03-14 10:49:00,
2014-03-14 07:08:00,28.1,14.0,30.18,WSW,250,1.0,4.0,56,0.00,,,0.00,weatherlink.com 1.10,2014-03-14 11:08:00,
2014-03-14 07:26:00,28.5,15.0,30.18,SW,223,3.0,6.0,56,0.00,,,0.00,weatherlink.com 1.10,2014-03-14 11:26:00,
2014-03-14 07:45:00,29.0,16.0,30.17,SW,233,2.0,5.0,57,0.00,,,0.00,weatherlink.com 1.10,2014-03-14 11:45:00,
2014-03-14 08:05:00,29.4,15.0,30.17,SW,234,4.0,6.0,55,0.00,,,0.00,weatherlink.com 1.10,2014-03-14 12:05:00,
2014-03-14 08:23:00,29.7,16.0,30.17,SSW,198,3.0,5.0,56,0.00,,,0.00,weatherlink.com 1.10,2014-03-14 12:23:00,
2014-03-14 08:42:00,30.2,17.0,30.17,South,181,2.0,9.0,57,0.00,,,0.00,weatherlink.com 1.10,2014-03-14 12:42:00,
2014-03-14 09:01:00,30.5,17.0,30.16,SW,217,2.0,7.0,57,0.00,,,0.00,weatherlink.com 1.10,2014-03-14 13:01:00,
2014-03-14 09:20:00,31.8,18.0,30.16,South,176,3.0,6.0,56,0.00,,,0.00,weatherlink.com 1.10,2014-03-14 13:20:00,
2014-03-14 09:39:00,34.0,19.0,30.15,SSE,166,0.0,5.0,53,0.00,,,0.00,weatherlink.com 1.10,2014-03-14 13:39:00,
2014-03-14 09:57:00,35.5,20.0,30.15,SSE,168,2.0,5.0,52,0.00,,,0.00,weatherlink.com 1.10,2014-03-14 13:57:00,
2014-03-14 10:16:00,36.7,20.0,30.14,South,172,2.0,5.0,50,0.00,,,0.00,weatherlink.com 1.10,2014-03-14 14:16:00,
2014-03-14 10:35:00,38.3,21.0,30.14,ESE,117,5.0,5.0,49,0.00,,,0.00,weatherlink.com 1.10,2014-03-14 14:35:00,
2014-03-14 10:54:00,39.5,22.0,30.13,SSW,211,3.0,8.0,50,0.00,,,0.00,weatherlink.com 1.10,2014-03-14 14:54:00,
2014-03-14 11:13:00,40.7,23.0,30.12,SW,227,3.0,6.0,48,0.00,,,0.00,weatherlink.com 1.10,2014-03-14 15:13:00,
2014-03-14 11:32:00,42.2,24.0,30.11,WSW,250,2.0,9.0,48,0.00,,,0.00,weatherlink.com 1.10,2014-03-14 15:32:00,
2014-03-14 11:51:00,43.4,24.0,30.10,WSW,250,3.0,10.0,47,0.00,,,0.00,weatherlink.com 1.10,2014-03-14 15:51:00,
2014-03-14 12:11:00,45.9,26.0,30.09,WSW,250,5.0,11.0,45,0.00,,,0.00,weatherlink.com 1.10,2014-03-14 16:11:00,
2014-03-14 12:30:00,47.2,26.0,30.07,SSW,213,3.0,15.0,44,0.00,,,0.00,weatherlink.com 1.10,2014-03-14 16:30:00,
2014-03-14 12:48:00,47.8,28.0,30.06,SSW,205,5.0,12.0,46,0.00,,,0.00,weatherlink.com 1.10,2014-03-14 16:48:00,
2014-03-14 13:07:00,48.2,28.0,30.05,SW,227,6.0,15.0,46,0.00,,,0.00,weatherlink.com 1.10,2014-03-14 17:07:00,
2014-03-14 13:26:00,49.8,29.0,30.04,West,264,7.0,15.0,44,0.00,,,0.00,weatherlink.com 1.10,2014-03-14 17:26:00,
2014-03-14 13:45:00,50.9,29.0,30.03,South,176,5.0,10.0,43,0.00,,,0.00,weatherlink.com 1.10,2014-03-14 17:45:00,
2014-03-14 14:04:00,51.5,30.0,30.01,SW,227,8.0,12.0,43,0.00,,,0.00,weatherlink.com 1.10,2014-03-14 18:04:00,
2014-03-14 14:23:00,51.6,30.0,30.00,WSW,245,8.0,13.0,43,0.00,,,0.00,weatherlink.com 1.10,2014-03-14 18:23:00,
2014-03-14 14:42:00,52.0,30.0,29.98,SSE,167,3.0,11.0,42,0.00,,,0.00,weatherlink.com 1.10,2014-03-14 18:42:00,
2014-03-14 15:01:00,52.8,30.0,29.97,West,274,4.0,12.0,42,0.00,,,0.00,weatherlink.com 1.10,2014-03-14 19:01:00,
2014-03-14 15:20:00,52.6,28.0,29.96,SW,235,4.0,16.0,39,0.00,,,0.00,weatherlink.com 1.10,2014-03-14 19:20:00,
2014-03-14 15:39:00,53.4,30.0,29.96,WSW,244,6.0,12.0,40,0.00,,,0.00,weatherlink.com 1.10,2014-03-14 19:39:00,
2014-03-14 15:57:00,52.9,29.0,29.94,WSW,239,6.0,12.0,40,0.00,,,0.00,weatherlink.com 1.10,2014-03-14 19:57:00,
2014-03-14 16:16:00,53.1,30.0,29.93,West,276,6.0,9.0,41,0.00,,,0.00,weatherlink.com 1.10,2014-03-14 20:16:00,
2014-03-14 16:36:00,53.4,29.0,29.92,West,276,7.0,12.0,39,0.00,,,0.00,weatherlink.com 1.10,2014-03-14 20:36:00,
2014-03-14 16:55:00,54.6,31.0,29.90,South,177,4.0,10.0,40,0.00,,,0.00,weatherlink.com 1.10,2014-03-14 20:55:00,
2014-03-14 17:14:00,55.1,31.0,29.88,SSE,167,2.0,10.0,39,0.00,,,0.00,weatherlink.com 1.10,2014-03-14 21:14:00,
2014-03-14 17:32:00,54.0,28.0,29.87,WSW,238,7.0,15.0,37,0.00,,,0.00,weatherlink.com 1.10,2014-03-14 21:32:00,
2014-03-14 17:51:00,53.6,29.0,29.86,SW,219,5.0,10.0,39,0.00,,,0.00,weatherlink.com 1.10,2014-03-14 21:51:00,
2014-03-14 18:10:00,53.4,30.0,29.86,SW,224,7.0,12.0,40,0.00,,,0.00,weatherlink.com 1.10,2014-03-14 22:10:00,
2014-03-14 18:30:00,53.0,29.0,29.86,SSW,200,2.0,8.0,40,0.00,,,0.00,weatherlink.com 1.10,2014-03-14 22:30:00,
2014-03-14 18:49:00,52.0,30.0,29.86,South,182,4.0,9.0,42,0.00,,,0.00,weatherlink.com 1.10,2014-03-14 22:49:00,
2014-03-14 19:07:00,51.7,29.0,29.86,SSW,211,3.0,10.0,42,0.00,,,0.00,weatherlink.com 1.10,2014-03-14 23:07:00,
2014-03-14 19:26:00,51.7,28.0,29.86,SSW,198,3.0,14.0,40,0.00,,,0.00,weatherlink.com 1.10,2014-03-14 23:26:00,
2014-03-14 19:45:00,51.1,28.0,29.86,South,180,3.0,10.0,41,0.00,,,0.00,weatherlink.com 1.10,2014-03-14 23:45:00,
2014-03-14 20:04:00,50.6,28.0,29.85,SSE,157,2.0,6.0,42,0.00,,,0.00,weatherlink.com 1.10,2014-03-15 00:04:00,
2014-03-14 20:22:00,50.4,28.0,29.84,SSW,207,3.0,7.0,42,0.00,,,0.00,weatherlink.com 1.10,2014-03-15 00:22:00,
2014-03-14 20:42:00,50.3,28.0,29.83,WSW,242,2.0,8.0,42,0.00,,,0.00,weatherlink.com 1.10,2014-03-15 00:42:00,
2014-03-14 21:01:00,49.8,28.0,29.83,SW,229,4.0,6.0,43,0.00,,,0.00,weatherlink.com 1.10,2014-03-15 01:01:00,
2014-03-14 21:20:00,49.9,28.0,29.84,SW,219,2.0,8.0,42,0.00,,,0.00,weatherlink.com 1.10,2014-03-15 01:20:00,
2014-03-14 21:38:00,49.9,28.0,29.83,South,176,3.0,9.0,42,0.00,,,0.00,weatherlink.com 1.10,2014-03-15 01:38:00,
2014-03-14 21:57:00,50.5,28.0,29.83,SW,229,5.0,12.0,41,0.00,,,0.00,weatherlink.com 1.10,2014-03-15 01:57:00,
2014-03-14 22:16:00,50.9,27.0,29.83,West,276,8.0,19.0,40,0.00,,,0.00,weatherlink.com 1.10,2014-03-15 02:16:00,
2014-03-14 22:35:00,50.9,27.0,29.83,SW,221,2.0,17.0,40,0.00,,,0.00,weatherlink.com 1.10,2014-03-15 02:35:00,
2014-03-14 22:54:00,50.7,28.0,29.83,SW,215,8.0,19.0,41,0.00,,,0.00,weatherlink.com 1.10,2014-03-15 02:54:00,
2014-03-14 23:13:00,51.0,28.0,29.82,WSW,237,14.0,24.0,41,0.00,,,0.00,weatherlink.com 1.10,2014-03-15 03:13:00,
2014-03-14 23:32:00,50.2,29.0,29.80,SW,224,6.0,14.0,43,0.00,,,0.00,weatherlink.com 1.10,2014-03-15 03:32:00,
2014-03-14 23:51:00,49.9,28.0,29.80,SW,216,4.0,13.0,43,0.00,,,0.00,weatherlink.com 1.10,2014-03-15 03:51:00,